Tracking 32968 objects as of 18-Jan-2026
HD Live streaming from Space Station
objects crossing your sky now

STARLINK-2481

Track STARLINK-2481 now!
10-day predictions
STARLINK-2481 is classified as:


NORAD ID: 48138
Int'l Code: 2021-027AY
Perigee: 553.3 km
Apogee: 555.3 km
Inclination: 53.1 °
Period: 95.6 minutes
Semi major axis: 6925 km
RCS: Unknown
Launch date: April 7, 2021
Source: United States (US)
Launch site: AIR FORCE EASTERN TEST RANGE (AFETR)
Your satellite tracking list
Your tracking list is empty




NASA's NSSDC Master Catalog

Two Line Element Set (TLE):
1 48138U 21027AY  26017.49572846  .00000959  00000-0  83282-4 0  9997
2 48138  53.0538  41.4379 0001455  78.7788 281.3365 15.06403809264701
Source of the keplerian elements: AFSPC